Vertical_Velocity
1 0 1 2 -1 -1 -1 1 0 -0 -2 -3 1 -2 -2 1 0 -3 1 -1 -3 -1 -2 0 -4 3 0 -0 3 1 -4 0 0 2 2 1 -0 4 5 0 4 2 5 1 2
1 1 -0 1 1 0 1 -1 0 1 -3 0 -1 -2 -1 2 0 -2 -1 -1 -1 -1 -5 -0 -7 1 -1 3 -1 2 0 1 6 1 5 1 4 4 2 1 3 0 0 -2 3
-1 0 -1 -1 2 -1 1 -0 -3 2 -1 -0 -3 -1 -0 1 0 -3 -2 1 -2 1 -6 -2 1 -0 4 -7 -4 -4 -2 -0 2 2 4 7 6 -3 -2 4 1 -11 2 0 1
1 1 -1 -3 -1 0 -1 -1 1 -0 -2 -2 -0 0 -3 1 -1 -3 0 -0 -3 3 -5 -2 1 0 -3 4 -6 -9 1 1 0 -1 -1 2 1 0 2 -19 3 -4 -7 1 6
0 1 2 -0 1 -1 1 -4 0 2 0 -1 -3 2 -1 2 -1 -2 1 -2 -4 2 -7 2 3 2 4 -0 -1 1 -2 -0 2 3 0 3 -2 1 4 1 0 -6 1 -4 -5
-2 -2 -2 1 2 -2 2 -2 -2 2 1 0 -2 3 -2 1 1 0 -0 -2 -1 -3 -4 2 -1 2 2 -0 1 0 -0 2 1 -5 -3 5 -2 1 1 1 -0 -3 3 -7 7
-2 -1 -1 -0 2 0 -1 1 -0 -2 4 0 0 -1 -3 -0 2 -0 1 -1 2 -4 -10 1 -4 -2 4 4 -1 2 2 3 1 -9 -0 -3 4 4 1 -3 0 -1 4 -2 -5
2 -3 -4 1 -1 1 -1 -1 2 1 -3 3 -0 -2 -2 3 1 0 3 -3 1 -0 -4 0 -1 -5 2 1 1 1 2 1 0 -3 1 -8 7 -2 -1 -1 -1 2 3 -1 -5
4 -2 3 -1 3 -3 2 -2 -1 -1 -0 1 -3 -4 -0 3 1 -4 4 -1 4 -1 -1 0 2 -4 0 1 1 4 -2 0 0 -1 2 4 -1 -3 -1 -3 -5 -6 -4 -3 -5
2 9 1 2 -1 -2 -4 -1 -0 -4 -4 5 0 -4 0 2 0 -3 -1 -1 2 -4 -3 -2 -2 -4 -2 -1 -1 -2 2 -0 -1 -3 -1 3 -1 0 -2 -1 -1 -1 -0 -1 1
-6 4 0 3 -1 -0 2 -3 -8 -3 2 9 -5 -1 3 1 1 4 0 1 4 -3 0 2 -4 -4 6 -2 -1 2 -1 7 5 6 0 1 -1 -1 1 -4 -4 -2 2 1 2
-1 -1 4 -3 2 5 2 -3 0 4 -10 4 1 -4 -2 -0 -0 -1 1 -2 -0 -6 3 -5 0 7 2 -1 -0 2 3 7 3 1 5 2 -6 2 -2 2 0 1 -2 0 -0
-3 3 -4 -3 -2 -1 3 -4 4 -5 -3 3 3 -5 0 -1 1 -2 -0 0 2 -4 0 -3 4 6 9 -5 -2 2 4 -1 3 -1 2 4 -1 -2 -5 -0 -1 -3 -2 -3 3
8 -2 2 -0 -5 5 8 7 3 0 -5 -10 -5 -5 -2 -2 -6 4 2 4 -1 -2 1 -5 -1 -3 10 3 4 -8 2 -3 3 0 0 1 -4 -8 -2 -2 -3 0 -7 -2 -2
-1 4 1 -2 2 7 1 -0 -1 -0 2 1 1 -3 2 -3 0 -8 4 7 0 -3 -1 -2 -8 6 0 -3 -1 4 -8 -0 1 0 1 0 0 -4 2 -8 -12 -3 -4 -1 -2
0 3 -0 -10 3 3 8 -1 10 -6 -16 7 2 5 1 1 -1 8 -0 6 9 5 -1 -7 -4 -0 -8 9 3 5 -4 1 -1 3 -2 0 1 -5 -3 -6 -1 9 -3 3 -2
4 10 -8 7 -4 3 3 0 7 -1 -4 -3 -3 2 9 -3 4 5 -3 -3 -6 4 -1 -2 -7 5 6 4 4 2 2 -4 -3 -2 -6 1 0 -9 -10 6 7 9 3 0 7
2 7 2 2 3 3 0 10 10 1 -26 6 5 8 -3 5 4 5 1 2 2 2 1 -4 0 3 0 -2 -1 -0 2 -6 -2 -2 -2 -1 -3 -15 0 -2 -1 -6 2 -4 -5
10 6 -12 6 11 -1 6 -7 -2 -7 4 3 5 8 4 4 5 5 4 2 1 -7 2 -2 -4 -4 2 -5 -0 1 2 -0 -2 -1 -2 -1 -4 -10 2 0 5 4 3 -2 4
2 6 -2 14 19 -3 9 -9 -9 -12 -1 3 -0 8 -2 1 5 11 -1 -8 -7 -6 3 -8 -1 -1 4 5 3 4 -2 -2 -1 -2 -0 -1 -3 -10 -9 -1 0 1 0 3 1
9 1 16 19 19 -4 -26 -7 -10 -8 5 2 5 0 2 1 -0 -4 -5 1 2 4 1 6 3 -7 8 -5 -2 -0 -1 -0 1 0 -5 -2 -7 -3 -6 5 2 -2 -3 -3 1
11 -9 10 10 0 1 -15 -4 -1 -8 7 3 4 -2 -0 7 0 5 -6 -6 2 -5 -7 0 2 -2 -10 3 4 2 -2 1 4 -4 1 0 -23 -6 -4 2 1 2 -2 -2 -1
10 18 5 15 -33 -24 19 -1 -7 -1 1 1 -5 1 4 7 6 4 -5 11 -4 -4 -11 -7 -9 2 -2 3 2 3 -4 4 4 3 -7 1 -18 -2 -3 -5 -0 -4 2 -2 -3
21 4 11 -9 41 8 -11 -12 -13 -2 -5 9 -13 3 4 1 2 -7 -4 5 1 -3 1 14 6 -12 -23 -18 -1 -5 -4 3 3 2 -3 -12 -10 -4 -2 2 -1 1 -4 -1 -2
13 -11 -6 -25 -45 7 12 14 -9 -13 1 7 -8 -7 2 2 2 -2 -1 -1 2 3 2 9 -9 6 -4 -0 1 1 4 4 1 -0 5 -15 -0 -7 -2 -5 1 -2 -4 -1 0
-17 -8 9 1 30 -4 -9 -12 -15 12 -2 -2 -14 -10 8 -10 3 4 14 3 -4 1 1 -1 -9 -2 3 4 1 -4 0 -0 -1 -1 -3 -3 -8 -5 -3 -1 5 0 0 -0 -1
3 0 8 13 2 -5 -39 16 -4 4 6 6 -10 18 11 -31 17 14 -1 3 9 9 1 4 -3 0 -6 4 5 5 -12 -7 -2 5 4 -4 -8 0 -3 -4 1 1 -3 1 3
Height
3145 3145 3145 3145 3145 3145 3144 3142 3141 3140 3137 3136 3133 3131 3128 3127 3125 3123 3122 3120 3118 3117 3116 3114 3116 3117 3117 3118 3118 3119 3121 3120 3120 3119 3119 3119 3119 3117 3117 3118 3119 3121 3122 3124 3122
3139 3140 3141 3141 3141 3141 3141 3139 3138 3136 3135 3133 3131 3129 3126 3125 3124 3122 3121 3118 3117 3117 3116 3115 3117 3117 3117 3118 3119 3120 3120 3120 3120 3120 3119 3118 3118 3118 3118 3118 3120 3121 3122 3123 3121
3134 3135 3136 3137 3137 3136 3136 3136 3135 3133 3132 3130 3128 3127 3124 3123 3122 3121 3119 3117 3116 3116 3117 3117 3118 3118 3118 3119 3121 3121 3121 3121 3120 3119 3119 3118 3117 3117 3118 3119 3119 3121 3123 3122 3120
3128 3129 3131 3131 3132 3131 3132 3131 3130 3130 3129 3127 3125 3124 3123 3122 3123 3119 3119 3117 3116 3117 3117 3118 3119 3120 3120 3120 3121 3121 3121 3120 3120 3119 3118 3117 3116 3117 3117 3117 3119 3120 3121 3119 3116
3123 3124 3125 3127 3126 3126 3126 3126 3126 3126 3126 3124 3123 3121 3120 3120 3120 3118 3119 3117 3116 3117 3118 3119 3120 3120 3120 3121 3121 3121 3120 3119 3120 3118 3118 3118 3117 3117 3116 3117 3119 3120 3120 3117 3116
3116 3118 3119 3120 3121 3121 3121 3121 3121 3121 3121 3121 3120 3118 3118 3118 3118 3117 3118 3117 3117 3117 3118 3119 3120 3120 3119 3120 3120 3119 3119 3120 3119 3118 3119 3119 3118 3117 3117 3117 3120 3121 3122 3120 3122
3110 3111 3112 3113 3114 3116 3116 3115 3116 3117 3117 3117 3117 3115 3115 3116 3115 3116 3117 3117 3117 3117 3118 3119 3119 3120 3120 3120 3119 3119 3119 3118 3118 3118 3119 3119 3120 3118 3117 3118 3121 3122 3123 3125 3127
3105 3106 3107 3107 3108 3108 3110 3110 3111 3111 3113 3113 3113 3112 3111 3112 3114 3115 3115 3116 3116 3117 3117 3118 3118 3119 3119 3120 3119 3118 3119 3118 3117 3119 3120 3121 3120 3120 3120 3121 3123 3124 3125 3127 3127
3102 3102 3102 3102 3102 3103 3104 3104 3107 3106 3108 3109 3110 3109 3108 3110 3111 3113 3114 3115 3116 3116 3117 3117 3118 3119 3119 3119 3119 3118 3118 3119 3119 3120 3120 3120 3120 3121 3121 3123 3124 3126 3127 3127 3127
3095 3097 3099 3098 3099 3097 3098 3098 3101 3101 3103 3104 3105 3108 3107 3108 3107 3110 3112 3113 3115 3115 3116 3116 3116 3117 3118 3119 3119 3118 3118 3119 3120 3121 3119 3120 3121 3121 3122 3123 3125 3126 3127 3127 3129
3088 3092 3093 3094 3094 3094 3095 3095 3100 3099 3097 3099 3101 3100 3102 3104 3106 3108 3110 3112 3113 3114 3115 3115 3115 3115 3116 3118 3118 3118 3118 3119 3119 3120 3120 3120 3121 3121 3123 3123 3124 3126 3127 3129 3130
3082 3085 3088 3089 3089 3090 3090 3090 3094 3094 3090 3094 3093 3094 3097 3100 3103 3105 3108 3111 3111 3112 3114 3116 3115 3116 3116 3117 3118 3117 3118 3118 3118 3117 3118 3119 3120 3121 3122 3123 3124 3127 3128 3129 3130
3076 3079 3082 3083 3085 3086 3086 3088 3089 3089 3087 3086 3086 3087 3092 3096 3098 3101 3105 3108 3110 3111 3113 3113 3115 3115 3115 3116 3117 3116 3116 3117 3117 3115 3116 3117 3118 3119 3120 3122 3123 3124 3126 3128 3130
3068 3073 3075 3077 3082 3081 3083 3086 3087 3086 3087 3079 3079 3079 3084 3089 3093 3098 3101 3107 3107 3109 3111 3112 3112 3112 3112 3112 3115 3116 3115 3115 3114 3114 3115 3116 3116 3115 3117 3118 3119 3121 3123 3125 3128
3061 3065 3069 3070 3075 3079 3080 3083 3085 3084 3089 3075 3072 3074 3076 3084 3089 3093 3097 3101 3104 3106 3110 3111 3110 3111 3111 3111 3113 3114 3115 3114 3113 3113 3114 3115 3116 3115 3115 3115 3115 3115 3117 3120 3123
3051 3056 3062 3064 3071 3076 3074 3080 3083 3087 3079 3071 3069 3069 3072 3078 3085 3089 3093 3098 3102 3104 3105 3107 3108 3109 3108 3109 3110 3113 3114 3113 3112 3112 3113 3113 3114 3113 3112 3111 3111 3112 3114 3115 3117
3040 3046 3052 3059 3067 3070 3071 3077 3082 3077 3072 3070 3068 3067 3069 3073 3081 3084 3087 3091 3095 3100 3102 3105 3105 3106 3104 3106 3108 3111 3112 3113 3114 3114 3113 3111 3112 3109 3110 3109 3108 3109 3110 3110 3112
3029 3036 3042 3051 3059 3064 3067 3073 3067 3061 3064 3066 3065 3066 3066 3071 3077 3080 3083 3086 3092 3096 3099 3101 3104 3104 3104 3106 3107 3108 3109 3111 3114 3116 3110 3110 3108 3108 3108 3106 3105 3105 3105 3105 3106
3014 3023 3030 3041 3051 3056 3061 3059 3052 3057 3058 3062 3064 3064 3065 3069 3074 3076 3080 3083 3087 3091 3096 3098 3100 3102 3102 3104 3106 3106 3106 3108 3109 3111 3111 3109 3106 3106 3105 3103 3103 3102 3101 3100 3101
2998 3009 3018 3032 3042 3049 3051 3042 3045 3055 3057 3057 3059 3062 3060 3064 3070 3072 3075 3078 3082 3088 3092 3095 3098 3099 3101 3102 3103 3102 3104 3106 3106 3109 3111 3106 3105 3104 3103 3101 3101 3100 3099 3098 3098
2983 2994 3006 3021 3030 3036 3028 3028 3039 3050 3054 3056 3055 3057 3058 3061 3065 3066 3070 3076 3079 3084 3088 3091 3095 3098 3098 3098 3099 3100 3100 3102 3104 3104 3104 3107 3102 3102 3101 3101 3100 3099 3099 3099 3099
2973 2979 2992 3008 3016 3016 3015 3020 3034 3042 3049 3050 3051 3054 3056 3059 3061 3064 3066 3072 3076 3080 3083 3088 3090 3092 3095 3095 3096 3096 3097 3098 3099 3100 3099 3099 3096 3099 3099 3099 3099 3099 3099 3099 3099
2963 2971 2984 2996 2999 2998 3008 3016 3027 3035 3039 3043 3048 3050 3052 3055 3059 3061 3064 3070 3073 3076 3079 3083 3085 3089 3090 3093 3091 3090 3093 3094 3094 3095 3094 3096 3093 3096 3096 3097 3097 3097 3097 3096 3097
2956 2962 2975 2980 2988 2992 3000 3006 3015 3026 3031 3037 3041 3047 3050 3051 3054 3057 3060 3065 3069 3073 3076 3078 3079 3080 3082 3084 3089 3089 3088 3089 3090 3090 3089 3089 3089 3091 3093 3092 3093 3093 3092 3092 3093
2944 2948 2954 2957 2969 2979 2991 2997 3006 3015 3022 3031 3034 3041 3047 3050 3052 3054 3057 3060 3064 3067 3070 3072 3073 3076 3078 3081 3083 3083 3084 3085 3085 3084 3084 3086 3085 3087 3087 3087 3088 3088 3088 3088 3089
2934 2941 2950 2952 2967 2975 2982 2984 2993 3009 3016 3019 3026 3035 3043 3046 3051 3053 3055 3057 3058 3063 3065 3067 3070 3072 3073 3075 3077 3077 3078 3079 3080 3079 3078 3080 3080 3083 3083 3083 3084 3084 3084 3084 3084
2925 2935 2944 2950 2957 2965 2956 2975 2987 3004 3010 3015 3025 3032 3036 3044 3049 3050 3050 3052 3054 3057 3059 3062 3065 3068 3070 3071 3072 3071 3072 3074 3074 3073 3074 3073 3076 3078 3078 3080 3080 3079 3079 3079 3079